Regional Weather Roundup
Issued by NWS

Home | Current Version | Previous Version | Graphics & Text | Print | Product List | Glossary On
Versions: 1 2 3 4 5 6 7 8 9 10 11 12 13 14 15 16 17 18 19 20 21 22 23 24 25 26 27
000
ASUS45 KBOI 251410
RWRID

IDAHO REGIONAL WEATHER ROUNDUP
NATIONAL WEATHER SERVICE BOISE ID
800 AM MDT TUE APR 25 2017

NOTE: "FAIR" INDICATES FEW OR NO CLOUDS BELOW 12000 FEET
WITH NO SIGNIFICANT WEATHER AND/OR OBSTRUCTIONS TO VISIBILITY

IDZ012-014-251500-
SOUTHWEST IDAHO


CITY           SKY/WX    TMP DP  RH WIND       PRES   REMARKS
BOISE          PTSUNNY   41  34  76 NW14      29.91R
CALDWELL       SUNNY     41  34  76 W9        29.92R
MOUNTAIN HOME  MOSUNNY   39  39  98 W10       29.89R WCI  33
$$

IDZ016-017-251500-
SOUTHCENTRAL IDAHO


CITY           SKY/WX    TMP DP  RH WIND       PRES   REMARKS
BURLEY         FLURRIES  38  33  82 W22G37    29.78R WCI  27
JEROME         MOSUNNY   38  34  85 W23G38    29.83R WCI  27
TWIN FALLS     CLOUDY    37  34  89 W24G32    29.83R WCI  26
$$

IDZ019>023-251500-
SOUTHEAST IDAHO


CITY           SKY/WX    TMP DP  RH WIND       PRES   REMARKS
IDAHO FALLS    RAIN      36  35  96 SW12      29.74R FOG     WCI  28
POCATELLO      CLOUDY    39  36  89 W20       29.78R WCI  29
REXBURG        LGT SNOW  32  32 100 SW7       29.71R FOG     WCI  26
$$

IDZ006-010-011-018-031-032-251500-
CENTRAL IDAHO MOUNTAINS


CITY           SKY/WX    TMP DP  RH WIND       PRES   REMARKS
MCCALL         CLOUDY    33  31  92 W3        29.84R
HAILEY         MOSUNNY   34  27  75 NW7       29.76R WCI  28
STANLEY          N/A     32  30  92 NW3       29.81R
SALMON         CLOUDY    37  36  93 CALM      29.81R
CHALLIS        CLOUDY    40  30  67 N6        29.80R
$$

IDZ002-004-006-007-026-251500-
NORTHERN IDAHO


CITY           SKY/WX    TMP DP  RH WIND       PRES   REMARKS
LEWISTON       CLOUDY    48  43  82 VRB3      29.89R
LOWELL           N/A     44  42  93 CALM      29.92R
COEUR D`ALENE  CLOUDY    44  41  89 SW5       29.86R
MULLAN PASS    SNOW      31  31 100 VRB3      29.80R VSB<1/4
$$




USA.gov is the U.S. government's official web portal to all federal, state and local government web resources and services.